AirNav   ProFlight Series 2 Aviation Headset
 
 942 users online  

PS92 VA Medical Center Heliport
Lebanon, Pennsylvania, USA

GOING TO LEBANON?


FAA INFORMATION EFFECTIVE 18 JUNE 2020

Location

FAA Identifier: PS92
Lat/Long: 40-18-55.3310N 076-24-10.8580W
40-18.922183N 076-24.180967W
40.3153697,-76.4030161
(estimated)
Elevation: 510 ft. / 155 m (estimated)
Variation: 11W (1985)
From city: 1 mile S of LEBANON, PA
Time zone: UTC -4 (UTC -5 during Standard Time)
Zip code: 17042

Heliport Operations

Heliport use: Private use, MEDICAL USE.
Activation date: 07/1986
Control tower: no
ARTCC: NEW YORK CENTER
FSS: WILLIAMSPORT FLIGHT SERVICE STATION
Attendance: UNATNDD
Segmented circle: yes

Heliport Communications

WX AWOS-2 at 9D4 (4 nm NE): 118.45 (717-866-2906)
WX ASOS at MUI (10 nm NW): 124.175 (717-861-2536)
WX ASOS at LNS (13 nm SE): 125.675 (717-569-8860)
WX ASOS at MDT (18 nm SW): 118.8 (717-944-1372)

Nearby radio navigation aids

VOR radial/distance  VOR name  Freq  Var
LRPr345/12.8LANCASTER VOR/DME117.3009W
RAVr159/16.9RAVINE VORTAC114.6011W
HARr099/30.5HARRISBURG VORTAC112.5010W
SEGr150/36.0SELINSGROVE VOR/DME110.4008W
ETXr253/36.5EAST TEXAS VOR/DME110.2009W
PTWr287/39.0POTTSTOWN VORTAC116.5009W

 
NDB name  Hdg/Dist  Freq  Var  ID
BELLGROVE147/10.032810WBZJ -... --.. .---

Heliport Services

Runway Information

Helipad H1

Dimensions: 60 x 60 ft. / 18 x 18 m
Surface: turf
Traffic pattern: leftleft

Heliport Ownership and Management from official FAA records

Ownership: Publicly-owned
Owner: VA MEDICAL CENTER
1700 S. LINCOLN AVENUE
LEBANON, PA 17042
Phone 717-272-6621
Manager: THADDEUS S. KOCUBA
1700 S. LINCOLN AVENUE
LEBANON, PA 17042
Phone 717-228-6050

Additional Remarks

FOR CD CTC HARRISBURG APCH AT 800-932-0712.

Instrument Procedures

There are no published instrument procedures at PS92.

Some nearby airports with instrument procedures:

08N - Keller Brothers Airport (4 nm SE)
9D4 - Deck Airport (4 nm NE)
58N - Reigle Field Airport (8 nm W)
KMUI - Muir Army Airfield (Fort Indiantown Gap) (10 nm NW)
KLNS - Lancaster Airport (13 nm SE)
N71 - Donegal Springs Airpark (16 nm SW)
74N - Bendigo Airport (16 nm NW)
KMDT - Harrisburg International Airport (18 nm SW)
 
Loc | Ops | Rwys | IFR | FBO | Links
Com | Nav | Svcs | Stats | Notes
Area around PS92 (VA Medical Center Heliport)
 
Road maps at: MapQuest Bing Google
 
Aerial photo
No photo
 
Sectional chart

 
Airport distance calculator
Flying to VA Medical Center Heliport? Find the distance to fly.

From to PS92

Sunrise and sunset
Times for 07-Jul-2020
 Local
(UTC-4)
 Zulu
(UTC)
Morning civil twilight05:1209:12
Sunrise05:4409:44
Sunset20:3700:37
Evening civil twilight21:0901:09

Current date and time
Zulu (UTC)  08-Jul-2020 02:04:59
Local (UTC-4)  07-Jul-2020 22:04:59
 
METAR
KMUI 
10nm NW 
080056Z 00000KT 10SM FEW035 23/22 A3001 RMK AO2A SLP163 T02310221
KLNS 
13nm S 
080153Z 15004KT 8SM CLR 25/22 A3003 RMK AO2 SLP165 T02500222
KMDT 
18nm W 
080156Z 00000KT 10SM FEW040 SCT250 26/23 A3002 RMK AO2 SLP164 T02560228
TAF
KMUI 
10nm NW 
072044Z 0720/0901 VRB06KT 9999 OVC025 QNH3003INS BECMG 0800/0801 16006KT 9999 FEW045 QNH2997INS BECMG 0807/0808 16006KT 9999 OVC015 QNH2997INS BECMG 0815/0816 VRB20G30KT 9000 -TSRA BKN020CB QNH2995INS TX29/0721Z TN22/0807Z LAST NO AMDS AFT 0805 NEXT 0811
KLNS 
13nm S 
072118Z 0721/0818 18004KT P6SM SCT030 BKN040 FM080900 VRB02KT P6SM BKN025 FM081100 VRB02KT 5SM BR OVC010
KMDT 
18nm W 
072118Z 0721/0818 14005KT P6SM BKN035 FM080800 VRB02KT P6SM BKN025 FM081000 VRB02KT 5SM BR OVC012
NOTAMs
Click for the latest NOTAMs
NOTAMs are issued by the DoD/FAA and will open in a separate window not controlled by AirNav.

 

 
 

Would you like to see your business listed on this page?

 If your business provides an interesting product or service to pilots, flight crews, aircraft, or users of the VA Medical Center Heliport, you should consider listing it here.  To start the listing process, click on the button below
 
Add a business
 

Other Pages about VA Medical Center Heliport

Update a link
 
Copyright © AirNav, LLC. All rights reserved. Privacy Policy  Contact